Regional Weather Roundup
Issued by NWS

Home | Current Version | Previous Version | Graphics & Text | Print | Product List | Glossary On
Versions: 1 2 3 4 5 6 7 8 9 10 11 12 13 14 15 16 17 18 19 20 21 22 23 24 25 26 27 28 29 30 31 32 33 34 35 36 37 38 39 40 41 42 43 44 45 46 47 48 49 50
000
ASUS43 KMKX 101411
RWRWI

WISCONSIN REGIONAL WEATHER ROUNDUP
NATIONAL WEATHER SERVICE MILWAUKEE/SULLIVAN WI
900 AM CDT THU JUL 10 2014

NOTE: "FAIR" INDICATES FEW OR NO CLOUDS BELOW 12,000 FEET WITH NO
SIGNIFICANT WEATHER AND/OR OBSTRUCTIONS TO VISIBILITY.

WIZ001-002-006>008-014>016-023>028-101500-
NORTHWEST WISCONSIN

CITY           SKY/WX    TMP DP  RH WIND       PRES   REMARKS
SUPERIOR ARPT  SUNNY     64  57  77 CALM      30.07S
ASHLAND        PTSUNNY   66  54  65 S7        30.10S
HAYWARD        PTSUNNY   66  55  67 S7        30.10S
SIREN          MOSUNNY   69  58  68 S7        30.08S
RICE LAKE      SUNNY     65  56  72 SE5       30.12S
LADYSMITH      SUNNY     66  56  68 SE5       30.14R
EAU CLAIRE     SUNNY     69  57  65 S6        30.09S
MENOMONIE      SUNNY     67  58  74 SE5       30.10S
NEW RICHMOND   SUNNY     68  58  69 S9        30.08S
OSCEOLA        SUNNY     68  62  79 SE8       30.10S
$$

WIZ003>005-009-010-017-018-101500-
NORTH CENTRAL WISCONSIN

CITY           SKY/WX    TMP DP  RH WIND       PRES   REMARKS
WOODRUFF       SUNNY     64  52  63 S7        30.14S
RHINELANDER    SUNNY     62  52  69 S5        30.16S
EAGLE RIVER    SUNNY     62  49  63 CALM      30.15S
LAND O LAKES   SUNNY     62  50  63 SW6       30.15F
PHILLIPS       SUNNY     65  55  68 S5        30.13S
TOMAHAWK       SUNNY     63  53  71 CALM      30.16R
MEDFORD        SUNNY     64  55  70 S9        30.14S
MERRILL        SUNNY     63  54  72 S3        30.15S
$$

WIZ029-030-035-036-043>047-101500-
CENTRAL WISCONSIN

CITY           SKY/WX    TMP DP  RH WIND       PRES   REMARKS
WAUSAU         SUNNY     65  52  62 S8        30.14R
MOSINEE        SUNNY     64  55  72 S7        30.16R
MARSHFIELD     SUNNY     66  56  70 S8        30.14R
STEVENS POINT  SUNNY     66  52  60 SE5       30.16S
WAUPACA        SUNNY     68  55  63 CALM      30.16S
WAUTOMA        SUNNY     69  55  60 CALM      30.16S
WISC RAPIDS    SUNNY     70  54  56 S9        30.16R
CAMP DOUGLAS   MOSUNNY   66  59  77 S6        30.14R
$$

WIZ011>013-019>022-031-037>040-048>050-101500-
NORTHEAST WISCONSIN

CITY           SKY/WX    TMP DP  RH WIND       PRES   REMARKS
ANTIGO         SUNNY     63  52  66 S7        30.17R
STURGEON BAY   SUNNY     64  54  68 S6        30.17F
GREEN BAY      SUNNY     66  55  67 S5        30.16S
MANITOWOC      SUNNY     62  59  90 SE8       30.17S
APPLETON       SUNNY     66  50  55 VRB5      30.16S
CLINTONVILLE   SUNNY     64  54  68 CALM      30.15F
OSHKOSH        SUNNY     68  54  60 S7        30.16R
$$

WIZ032>034-041-042-053>061-101500-
SOUTHWEST WISCONSIN

CITY           SKY/WX    TMP DP  RH WIND       PRES   REMARKS
LA CROSSE      MOSUNNY   72  56  57 S9        30.10S
SPARTA         PTSUNNY   69  55  60 CALM      30.13S
VIROQUA        FAIR      69  56  65 S9        30.14S
BOSCOBEL       SUNNY     68  59  73 N3        30.14S
PRAIRIE DU CHI MOSUNNY   69  59  69 CALM      30.12S
PLATTEVILLE    FAIR      69  57  65 S8        30.16S
$$

WIZ056-057-062-063-064-067-068-101500-
SOUTH CENTRAL WISCONSIN

CITY           SKY/WX    TMP DP  RH WIND       PRES   REMARKS
BARABOO/DELLS  PTSUNNY   69  53  57 S8        30.15R
LONE ROCK      MOSUNNY   69  59  70 CALM      30.15S
WATERTOWN      SUNNY     68  57  68 S3        30.16R
MADISON        MOSUNNY   69  55  60 S5        30.16R
MIDDLETON      FAIR      71  52  51 SW8       30.17R
MONROE         PTSUNNY   68  55  64 S6        30.16S
JANESVILLE     MOSUNNY   70  55  60 VRB6      30.16R
$$

WIZ051-052-058>065-066-070>072-101500-
SOUTHEAST WISCONSIN

CITY           SKY/WX    TMP DP  RH WIND       PRES   REMARKS
MILWAUKEE      SUNNY     66  57  72 E6        30.17R
WAUKESHA       SUNNY     66  54  63 CALM      30.18R
MILWAUKEE/TIMM SUNNY     68  54  60 CALM      30.18R
RACINE         SUNNY     66  56  70 E7        30.18R
BURLINGTON     SUNNY     66  59  77 CALM      30.17R
KENOSHA        SUNNY     68  59  73 VRB3      30.17R
FOND DU LAC    SUNNY     69  54  58 S6        30.16R
SHEBOYGAN      MOSUNNY   61  58  90 S5        30.17R
WEST BEND      SUNNY     64  54  68 CALM      30.17R
JUNEAU         SUNNY     67  41  39 SE5       30.18R
$$

LSZ147-162-101500-
LAKE SUPERIOR

STATION/POSITION TIME  TEMP    WIND        PRES    WAVE
                       AIR SEA DIR/SP/G            HT/PER
                 (UTC) (F)     (DEG/KT/KT) (MB)    (FT/S)
W MID LAKE BUOY  1350   43 38  130/  4/  6 1019.9R   0
DEVILS ISLAND    1400   63     100/  1/  3 1019.0S
PORT WING        1300   59     360/  5/  6 1018.6R
SAXON HARBOR     1300          200/  5/  9 1019.0S
$$

LMZ867-665-643>646-101500-
LAKE MICHIGAN

STATION/POSITION TIME  TEMP    WIND        PRES    WAVE
                       AIR SEA DIR/SP/G            HT/PER
                 (UTC) (F)     (DEG/KT/KT) (MB)    (FT/S)
N MID LAKE BUOY  1350   56 54  190/  6/  6 1021.5R   0
NORTHPORT PIER   1300   63     150/  4/  6 1021.3R
SISTER BAY       1310   68     190/  6/  8   N/A
KEWAUNEE LAKESHO 1300   52     150/  2/  3 1022.1R
SHEBOYGAN LAKESH 1400   58     130/  4/  4 1022.1R
PORT WASHINGTON  1300   55      90/  1/  2 1022.0R
MILWAUKEE LAKESH 1300   58      40/  5/  6   N/A
S MID LAKE BUOY  1350   57 56   60/  6/  6 1021.7R   0
KENOSHA   LAKESH 1400   60      CALM  /  2   N/A
$$

TC  - TEMPERATURE IN CELSIUS
VSB - VISIBILITY IN STATUTE MILES
WCI - WIND CHILL INDEX
HX  - HEAT INDEX



USA.gov is the U.S. government's official web portal to all federal, state and local government web resources and services.